FENGYUN 1C DEB, 30462

Orbit data source: Space-Track

FENGYUN 1C DEB, 30462 is space debris in SSO originally from a launch on Mon, 10 May 1999 UTC launched from the Taiyaun Space Center, China (TSC). Fengyun 1C debris stems from the Chinese weather satellite Fengyun-1C, which was intentionally destroyed by a Chinese anti-satellite missile in 2007. This event dramatically increased the amount of space debris, with thousands of trackable fragments posing hazards to satellites and human spaceflight. The Fengyun 1C debris cloud has become a focal point in discussions about space sustainability and the need for international regulations to prevent the creation of new debris.

Loading next visibility...
Identifier
30462, 1999-025AFZ
Orbit
SSO
Country
Flag of CNCN / PRC
Related business
Manufacturer
Unknown
Mission
Spacecraft
Bus & Motor
Unknown
Mass
Unknown
Launch date (UTC)
1999-05-10 (27 years ago)
Launch vehicle
Unknown
Launch site
Taiyaun Space Center, China (TSC)
Object type
Payload
Rocket body
Debris
Shape & HBR
Unknown shape, 0.1 m
Radar Cross Section
Small (<0.1 m²)

Expand to show TLE details & history
Last TLE update: 16 hours ago

TLE from 16 hours ago
0 FENGYUN 1C DEB
1 30462U 99025AFZ 26037.44547806  .00000477  00000-0  28791-3 0  9994
2 30462  98.8221  29.2669 0140721  93.8023  58.4192 14.06309016975764
Epoch: 2026-02-06T10:41Z
TLE epoch observation values (Epoch: 2026-02-06T10:41:29.304Z)
Latitude
26.0912°
Longitude
-83.35272°
Altitude
822.79 km
Speed
7.471 km/s
True Right ascension
14h 14m 24s
True Declination
25° 57' 25"
Sunlit
Object was in daylight at epoch
Visualization orbit readout
Latitude
Unknown
Longitude
Unknown
Altitude
Unknown
Speed
Unknown
Apparent Right ascension
Unknown
Apparent Declination
Unknown
Sunlit
N/A
Visualization observer readout
Local Sidereal Time
05:12:28
Azimuth
Unknown
Elevation
Unknown
Doppler factor
Unknown
Orbital elements
Apogee altitude
971.197 km
Perigee altitude
767.226 km
Semi-major axis
7,247.348 km
Eccentricity
0.01407
Inclination
98.8221°
RAAN
29.2669°
Arg. of periapsis
93.8023°
True anomaly
59.80556°
Mean anomaly
58.4192°
Eccentric anomaly
59.11111°
Mean motion
3.51783 °/min
Orbital period
102.34 mins
BSTAR
0.00028791
Loading maneuver chart data...
Computing Atmospheric mass density...

Documentation

Showing up to 5 results
|